Location: Elaina
(34.1445°N, 106.7742°W)
Time: 07:33:57
(UTC+00:00)

NOSS 3-1 (C) - Pass Details

Date: 17 March 2026
Orbit: 618 x 1583 km, 63.4° (Epoch: 10 January)

Event Time Altitude Azimuth Distance (km) Brightness Sun altitude
Rises 10:53:03 0° 345° (NNW) 3,752 6.6 -29.6°
Reaches altitude 10° 10:57:43 10° 16° (NNE) 3,042 6.5 -28.7°
Maximum altitude 11:00:28 12° 38° (NE) 3,009 6.7 -28.2°
Drops below altitude 10° 11:03:25 10° 60° (ENE) 3,309 7.2 -27.6°
Sets 11:09:03 0° 88° (E) 4,502 8.1 -26.5°
